DW5861 Weather Reports


Display with metric or nautical units.
time (UTC)temp
F
wind
direction
speed
MPH
gust
MPH
rain 1hr
in
rain 24hr
in
rain mn
in
humidity
%
barometer
mb
20260904022505 79 140 1.0 2.0 0.00 0.26 0.20 87 1012.7
20260904022007 79 143 1.0 2.0 0.00 0.27 0.20 87 1012.6
20260904021508 79 144 0.0 2.0 0.00 0.27 0.20 86 1012.6
20260904021005 80 171 1.0 2.0 0.00 0.28 0.20 86 1012.5
20260904020504 80 205 1.0 2.0 0.00 0.28 0.20 86 1012.5
20260904020005 80 217 1.0 2.0 0.00 0.29 0.20 86 1012.4
20260904015505 80 189 1.0 2.0 0.00 0.29 0.20 85 1012.3
20260904015007 80 134 1.0 2.0 0.00 0.30 0.20 85 1012.2
20260904014508 80 125 1.0 2.0 0.00 0.31 0.20 85 1012.1
20260904014004 80 133 1.0 2.0 0.00 0.31 0.20 85 1012.1
20260904013504 80 140 1.0 2.0 0.00 0.32 0.20 85 1012.0
20260904013004 81 161 1.0 2.0 0.00 0.32 0.20 84 1012.0
20260904012526 81 174 1.0 2.0 0.00 0.33 0.20 84 1011.8
20260904012004 81 175 1.0 2.0 0.00 0.34 0.20 84 1011.7
20260904011525 81 176 1.0 2.0 0.00 0.35 0.20 83 1011.7
20260904011025 82 166 1.0 2.0 0.00 0.36 0.20 83 1011.6
20260904010504 82 168 1.0 2.0 0.00 0.36 0.20 82 1011.6
20260904010004 82 181 1.0 2.0 0.00 0.37 0.20 82 1011.6
20260904005504 83 200 1.0 2.0 0.00 0.38 0.20 82 1011.6
20260904005004 83 217 1.0 2.0 0.00 0.38 0.20 81 1011.6
20260904004504 84 214 1.0 2.0 0.00 0.38 0.20 80 1011.6
20260904004004 84 187 0.0 1.0 0.00 0.39 0.20 79 1011.6
20260904003504 84 178 1.0 2.0 0.00 0.40 0.20 79 1011.6
20260904003004 84 162 1.0 2.0 0.00 0.41 0.20 79 1011.5
20260904002504 85 163 1.0 2.0 0.00 0.42 0.20 78 1011.5
20260904002004 85 156 1.0 2.0 0.00 0.42 0.20 78 1011.5
20260904001525 85 158 1.0 3.0 0.00 0.43 0.20 78 1011.5
20260904001004 86 179 1.0 3.0 0.00 0.44 0.20 78 1011.5
20260904000525 86 174 1.0 2.0 0.00 0.45 0.20 77 1011.5
20260904000004 86 160 1.0 2.0 0.00 0.45 0.20 77 1011.6
20260903235504 87 162 1.0 2.0 0.00 0.47 0.20 76 1011.5
20260903235004 87 174 1.0 3.0 0.00 0.48 0.20 75 1011.5
20260903234504 87 179 1.0 3.0 0.00 0.50 0.20 75 1011.5
20260903234004 88 188 1.0 3.0 0.00 0.51 0.20 74 1011.5
20260903233504 88 189 1.0 3.0 0.00 0.52 0.20 74 1011.5
20260903233004 88 182 2.0 5.0 0.00 0.54 0.20 73 1011.5
20260903232504 88 185 3.0 6.0 0.00 0.56 0.20 72 1011.5
20260903232004 89 172 2.0 6.0 0.00 0.58 0.20 72 1011.6
20260903231525 89 160 2.0 6.0 0.00 0.60 0.20 71 1011.5
20260903231004 89 153 2.0 6.0 0.00 0.63 0.20 71 1011.5
20260903230525 90 153 2.0 5.0 0.00 0.65 0.20 70 1011.6
20260903230004 90 191 2.0 5.0 0.00 0.68 0.20 70 1011.6
20260903225504 90 197 2.0 5.0 0.00 0.71 0.20 70 1011.6
20260903225004 90 165 2.0 6.0 0.00 0.74 0.20 69 1011.7
20260903224504 90 174 3.0 6.0 0.00 0.76 0.20 68 1011.8
20260903224004 90 182 3.0 6.0 0.00 0.78 0.20 69 1011.8
20260903223504 89 167 3.0 6.0 0.00 0.81 0.20 70 1011.9
20260903223004 89 154 3.0 7.0 0.00 0.82 0.20 69 1011.9
20260903222504 90 139 3.0 7.0 0.00 0.83 0.20 68 1012.0
20260903222004 90 150 3.0 6.0 0.00 0.84 0.20 67 1012.1
20260903221525 90 178 3.0 6.0 0.00 0.84 0.20 69 1012.1
20260903221004 89 191 3.0 8.0 0.00 0.85 0.20 71 1012.1
20260903220504 89 181 4.0 8.0 0.00 0.85 0.20 70 1012.2
20260903220004 90 150 4.0 8.0 0.00 0.86 0.20 68 1012.2
20260903215504 90 153 4.0 7.0 0.00 0.86 0.20 67 1012.3
20260903215004 91 166 3.0 8.0 0.00 0.87 0.20 68 1012.3
20260903214504 91 172 3.0 8.0 0.00 0.88 0.20 69 1012.4
20260903214025 91 162 3.0 9.0 0.00 0.89 0.20 68 1012.4
20260903213504 92 174 4.0 9.0 0.00 0.91 0.20 65 1012.4
20260903213004 92 193 3.0 8.0 0.00 0.93 0.20 65 1012.5
20260903212504 93 193 4.0 7.0 0.00 0.94 0.20 64 1012.5
20260903212004 93 194 3.0 7.0 0.00 0.96 0.20 67 1012.5
20260903211504 93 181 3.0 8.0 0.00 0.97 0.20 65 1012.6
20260903211025 93 179 3.0 8.0 0.00 0.99 0.20 66 1012.6
20260903210504 92 177 3.0 7.0 0.00 1.01 0.20 65 1012.7
20260903210004 93 158 3.0 7.0 0.00 1.02 0.20 65 1012.7
20260903205504 92 189 3.0 6.0 0.00 1.02 0.20 66 1012.7
20260903205004 92 229 3.0 7.0 0.00 1.03 0.20 65 1012.7
20260903204504 93 203 3.0 8.0 0.00 1.04 0.20 64 1012.7
20260903204004 93 195 3.0 8.0 0.00 1.04 0.20 63 1012.7
20260903203504 93 204 3.0 7.0 0.00 1.05 0.20 63 1012.7
20260903203004 93 184 3.0 6.0 0.00 1.05 0.20 65 1012.8
20260903202525 92 191 2.0 5.0 0.00 1.05 0.20 67 1012.8
20260903202025 92 206 3.0 5.0 0.00 1.05 0.20 63 1012.9
20260903201525 91 207 2.0 5.0 0.00 1.06 0.20 66 1012.9
20260903201025 90 231 1.0 4.0 0.00 1.06 0.20 69 1012.9
20260903200525 90 239 2.0 7.0 0.00 1.07 0.20 68 1013.0
20260903200004 90 228 3.0 7.0 0.00 1.07 0.20 68 1013.2
20260903195504 90 209 2.0 5.0 0.00 1.07 0.20 70 1013.5
20260903195004 89 206 2.0 7.0 0.00 1.09 0.20 72 1013.7
20260903194504 89 210 2.0 7.0 0.00 1.09 0.20 72 1013.8
20260903194003 88 172 3.0 8.0 0.00 1.09 0.20 72 1014.0
20260903193504 90 171 3.0 8.0 0.00 1.09 0.20 70 1014.1
20260903193004 90 177 2.0 6.0 0.00 1.09 0.20 70 1014.1
20260903192504 90 188 2.0 6.0 0.00 1.11 0.20 71 1014.1
20260903192004 89 233 2.0 6.0 0.00 1.13 0.20 70 1014.1
20260903191504 89 226 2.0 4.0 0.00 1.15 0.20 72 1014.1
20260903191004 89 211 2.0 4.0 0.00 1.16 0.20 74 1014.1
20260903190504 88 215 2.0 6.0 0.00 1.18 0.20 69 1014.0
20260903190004 88 214 2.0 6.0 0.00 1.19 0.20 71 1014.1
20260903185504 88 4 1.0 3.0 0.00 1.20 0.20 73 1014.1
20260903185004 88 260 2.0 5.0 0.00 1.21 0.20 70 1014.0
20260903184504 89 241 2.0 5.0 0.00 1.21 0.20 70 1013.8
20260903184004 88 356 2.0 4.0 0.00 1.21 0.20 76 1013.6
20260903183503 87 325 2.0 4.0 0.00 1.21 0.20 76 1013.5
20260903183004 89 231 2.0 7.0 0.00 1.21 0.20 76 1013.5
20260903182525 89 171 2.0 7.0 0.00 1.22 0.20 78 1013.6
20260903182004 88 191 2.0 5.0 0.00 1.23 0.20 76 1013.8
20260903181525 88 230 2.0 5.0 0.00 1.23 0.20 75 1013.9
20260903181025 89 175 3.0 5.0 0.00 1.24 0.20 78 1014.1
20260903180503 89 171 3.0 5.0 0.00 1.25 0.20 78 1014.4
20260903180004 87 182 3.0 5.0 0.00 1.26 0.20 78 1014.5
20260903175504 85 190 2.0 5.0 0.00 1.27 0.20 82 1014.6
20260903175004 83 316 1.0 2.0 0.00 1.28 0.20 86 1014.8
20260903174504 83 262 1.0 2.0 0.00 1.28 0.20 88 1014.9
20260903174004 84 137 2.0 4.0 0.00 1.29 0.20 86 1015.1
20260903173503 84 123 2.0 4.0 0.00 1.30 0.20 84 1015.3
20260903173004 84 124 1.0 4.0 0.00 1.30 0.20 86 1015.4
20260903172504 83 167 1.0 3.0 0.00 1.31 0.20 86 1015.4
20260903172004 83 198 1.0 3.0 0.00 1.32 0.20 86 1015.4
20260903171504 83 203 1.0 3.0 0.00 1.33 0.20 86 1015.6
20260903171004 82 127 1.0 3.0 0.00 1.34 0.20 88 1015.6
20260903170504 81 99 1.0 2.0 0.00 1.36 0.20 90 1015.5
20260903170024 81 94 1.0 2.0 0.00 1.39 0.20 90 1015.6
20260903165503 80 94 1.0 2.0 0.01 1.42 0.20 91 1015.6
20260903165025 80 94 1.0 2.0 0.01 1.46 0.20 92 1015.6
20260903164504 80 94 1.0 2.0 0.03 1.56 0.20 93 1015.6
20260903164003 79 94 1.0 2.0 0.06 1.64 0.20 96 1015.7
20260903163525 78 94 1.0 2.0 0.09 1.76 0.20 96 1015.5
20260903163003 78 94 1.0 2.0 0.09 1.79 0.20 96 1015.7
20260903162503 78 94 1.0 2.0 0.09 1.80 0.20 96 1015.6
20260903162003 78 94 1.0 2.0 0.09 1.82 0.20 96 1015.5
20260903161504 78 94 1.0 2.0 0.09 1.83 0.20 96 1015.3
20260903161004 78 94 1.0 2.0 0.09 1.85 0.20 96 1015.3
20260903160503 78 73 1.0 2.0 0.09 1.87 0.20 96 1015.4
20260903160004 78 43 1.0 2.0 0.10 1.89 0.20 96 1015.3
20260903155503 78 37 1.0 2.0 0.10 1.89 0.19 96 1015.5
20260903155004 78 109 1.0 3.0 0.11 1.92 0.19 96 1015.6
20260903154503 78 135 2.0 3.0 0.09 1.91 0.17 96 1015.7
20260903154003 78 87 2.0 3.0 0.08 1.91 0.14 96 1015.8
20260903153524 78 78 2.0 3.0 0.06 1.94 0.11 96 1015.6
20260903153004 78 78 2.0 3.0 0.06 2.04 0.11 96 1015.7
20260903152524 78 78 2.0 3.0 0.06 2.12 0.11 96 1015.5
20260903152025 77 78 2.0 3.0 0.06 2.16 0.11 96 1015.4
20260903151503 77 78 2.0 3.0 0.06 2.19 0.11 96 1015.4
20260903151003 77 78 2.0 3.0 0.06 2.22 0.11 96 1015.5
20260903150503 77 80 1.0 3.0 0.06 2.27 0.11 96 1015.3
20260903150003 77 217 1.0 2.0 0.05 2.35 0.10 96 1015.4
20260903145504 78 219 2.0 3.0 0.04 2.39 0.09 96 1015.5
20260903145004 78 194 1.0 3.0 0.03 2.42 0.08 96 1015.6
20260903144503 78 72 2.0 3.0 0.03 2.47 0.08 96 1015.4
20260903144003 78 73 3.0 3.0 0.01 2.57 0.06 96 1015.5
20260903143503 78 73 3.0 3.0 0.00 2.66 0.05 96 1015.3
20260903143004 78 73 3.0 3.0 0.00 2.68 0.05 96 1015.3
20260903142503 78 73 3.0 3.0 0.00 2.70 0.05 96 1015.3
20260903142025 78 73 3.0 3.0 0.00 2.73 0.05 96 1015.3
20260903141503 78 73 3.0 3.0 0.00 2.75 0.05 96 1015.2
20260903141024 78 73 3.0 3.0 0.00 2.76 0.05 96 1015.2
20260903140503 78 73 3.0 3.0 0.00 2.78 0.05 96 1015.2
20260903140003 78 73 3.0 3.0 0.00 2.79 0.05 96 1015.2
20260903135503 78 73 3.0 3.0 0.00 2.81 0.05 96 1015.2
20260903135024 78 73 3.0 3.0 0.00 2.82 0.05 96 1015.3
20260903134503 78 73 3.0 3.0 0.00 2.84 0.05 96 1015.3
20260903134024 78 73 3.0 3.0 0.00 2.86 0.05 96 1015.2
20260903133504 78 73 3.0 3.0 0.00 2.88 0.05 96 1015.2
20260903133003 78 73 3.0 3.0 0.00 2.90 0.05 96 1015.1
20260903132524 78 73 3.0 3.0 0.00 2.92 0.05 96 1015.1
20260903132004 78 73 3.0 3.0 0.00 2.94 0.05 96 1015.1
20260903131503 78 73 3.0 3.0 0.01 3.00 0.05 96 1015.2
20260903131003 78 73 3.0 3.0 0.01 3.04 0.05 96 1015.3
20260903130503 78 73 3.0 3.0 0.01 3.07 0.05 96 1015.3
20260903130003 78 73 3.0 3.0 0.01 3.08 0.05 96 1015.2
20260903125503 78 73 3.0 3.0 0.01 3.10 0.05 96 1015.1
20260903125003 77 73 3.0 3.0 0.01 3.11 0.05 96 1015.0
20260903124503 77 73 3.0 3.0 0.01 3.11 0.05 96 1014.9
20260903124003 77 73 3.0 3.0 0.01 3.12 0.05 96 1014.9
20260903123524 77 73 3.0 3.0 0.01 3.14 0.05 96 1015.0
20260903123003 77 73 3.0 3.0 0.01 3.15 0.05 96 1015.0
20260903122503 77 73 3.0 3.0 0.01 3.17 0.05 96 1014.9
20260903122003 77 73 3.0 3.0 0.02 3.18 0.05 96 1014.9
20260903121503 77 73 3.0 3.0 0.01 3.17 0.04 96 1014.7
20260903121003 77 73 3.0 3.0 0.01 3.18 0.04 96 1014.6
20260903120524 77 73 3.0 3.0 0.01 3.19 0.04 96 1014.4
20260903120003 77 73 3.0 3.0 0.01 3.20 0.04 96 1014.3
20260903115524 77 73 3.0 3.0 0.01 3.21 0.04 96 1014.2
20260903115003 77 73 3.0 3.0 0.01 3.22 0.04 96 1014.3
20260903114504 77 73 3.0 3.0 0.02 3.23 0.04 96 1014.3
20260903114003 77 73 3.0 3.0 0.02 3.23 0.04 96 1014.3
20260903113503 77 73 3.0 3.0 0.02 3.24 0.04 96 1014.3
20260903113003 77 73 3.0 3.0 0.02 3.25 0.04 96 1014.2
20260903112503 77 73 3.0 3.0 0.02 3.26 0.04 96 1014.2
20260903112004 77 73 3.0 3.0 0.01 3.26 0.03 96 1014.1
20260903111503 77 73 3.0 3.0 0.01 3.27 0.03 96 1014.1
20260903111004 77 73 3.0 3.0 0.01 3.28 0.03 96 1014.1
20260903110504 77 73 3.0 3.0 0.01 3.29 0.03 96 1014.1
20260903110024 77 73 3.0 3.0 0.01 3.30 0.03 96 1014.2
20260903105524 77 73 3.0 3.0 0.01 3.31 0.03 96 1014.3
20260903105003 77 73 3.0 3.0 0.01 3.32 0.03 96 1014.3
20260903104524 77 73 3.0 3.0 0.00 3.33 0.02 96 1014.3
20260903104004 77 73 3.0 3.0 0.00 3.35 0.02 96 1014.2
20260903103524 77 73 3.0 3.0 0.00 3.36 0.02 96 1014.2
20260903103003 77 73 3.0 3.0 0.00 3.37 0.02 96 1014.2
20260903102504 77 73 3.0 3.0 0.00 3.39 0.02 96 1014.2
20260903102003 77 73 3.0 3.0 0.00 3.41 0.02 96 1014.2
20260903101504 77 73 3.0 3.0 0.00 3.42 0.02 96 1014.1
20260903101003 77 73 3.0 3.0 0.00 3.44 0.02 96 1014.2
20260903100503 77 73 3.0 3.0 0.00 3.46 0.02 96 1014.1
20260903100003 77 73 3.0 3.0 0.01 3.48 0.02 96 1014.0
20260903095524 77 73 3.0 3.0 0.01 3.50 0.02 96 1014.0
20260903095003 77 73 3.0 3.0 0.01 3.52 0.02 96 1014.0
20260903094503 77 73 3.0 3.0 0.01 3.54 0.02 96 1014.0
20260903094003 77 73 3.0 3.0 0.01 3.56 0.02 96 1014.0
20260903093503 77 73 3.0 3.0 0.01 3.57 0.02 96 1013.9
20260903093003 77 73 3.0 3.0 0.01 3.59 0.02 96 1014.0
20260903092503 77 73 3.0 3.0 0.01 3.60 0.02 96 1013.8
20260903092003 77 73 3.0 3.0 0.01 3.61 0.02 96 1013.8
20260903091503 77 73 3.0 3.0 0.01 3.62 0.02 96 1013.8
20260903091003 77 73 3.0 3.0 0.01 3.64 0.02 96 1013.7
20260903090503 77 73 3.0 3.0 0.01 3.66 0.02 96 1013.7
20260903090003 77 73 3.0 3.0 0.00 3.67 0.01 96 1013.6
20260903085503 77 73 3.0 3.0 0.00 3.68 0.01 96 1013.5
20260903085003 77 73 3.0 3.0 0.00 3.70 0.01 96 1013.5
20260903084503 77 73 3.0 3.0 0.00 3.72 0.01 96 1013.4
20260903084024 77 73 3.0 3.0 0.00 3.74 0.01 96 1013.4
20260903083503 77 73 3.0 3.0 0.00 3.75 0.01 96 1013.5
20260903083003 77 73 3.0 3.0 0.00 3.76 0.01 96 1013.4
20260903082503 77 73 3.0 3.0 0.00 3.77 0.01 96 1013.5
20260903082003 76 73 3.0 3.0 0.00 3.77 0.01 96 1013.5
20260903081503 76 73 3.0 3.0 0.00 3.78 0.01 96 1013.5
20260903081003 76 73 3.0 3.0 0.00 3.79 0.01 96 1013.6
20260903080524 76 73 3.0 3.0 0.01 3.80 0.01 96 1013.6
20260903080003 76 73 3.0 3.0 0.01 3.82 0.01 96 1013.7
20260903075503 76 73 3.0 3.0 0.01 3.83 0.01 96 1013.6
20260903075003 76 73 3.0 3.0 0.01 3.84 0.01 96 1013.6
20260903074503 76 73 3.0 3.0 0.01 3.84 0.01 96 1013.5
20260903074003 76 73 3.0 3.0 0.01 3.85 0.01 96 1013.5
20260903073503 76 73 3.0 3.0 0.01 3.86 0.01 96 1013.4
20260903073003 76 73 3.0 3.0 0.01 3.88 0.01 96 1013.4
20260903072503 76 73 3.0 3.0 0.01 3.88 0.01 96 1013.4
20260903072003 76 73 3.0 3.0 0.01 3.89 0.01 96 1013.3
20260903071503 76 73 3.0 3.0 0.01 3.89 0.01 96 1013.4
20260903071024 76 73 3.0 3.0 0.01 3.89 0.01 96 1013.4
20260903070524 76 73 3.0 3.0 0.00 3.88 0.01 96 1013.5
20260903070003 76 73 3.0 3.0 0.00 3.88 0.00 96 1013.6
20260903065503 76 73 3.0 3.0 0.00 3.88 0.00 96 1013.6
20260903065003 76 73 3.0 3.0 0.00 3.88 0.00 96 1013.8
20260903064503 76 73 3.0 3.0 0.00 3.88 0.00 96 1013.8
20260903064003 76 73 3.0 3.0 0.00 3.88 0.00 96 1013.8
20260903063504 76 73 3.0 3.0 0.00 3.88 0.00 96 1013.9
20260903063003 76 73 2.0 3.0 0.00 3.88 0.00 95 1013.8
20260903062503 76 73 2.0 3.0 0.00 3.88 0.00 96 1013.8
20260903062003 76 73 3.0 3.0 0.00 3.88 0.00 96 1013.8
20260903061503 76 73 2.0 3.0 0.00 3.88 0.00 96 1013.9
20260903061003 76 73 2.0 3.0 0.00 3.88 0.00 96 1014.0
20260903060503 76 73 2.0 3.0 0.00 3.88 0.00 96 1013.9
20260903060024 76 73 2.0 3.0 0.00 3.88 0.00 96 1013.9
20260903055503 76 73 2.0 3.0 0.00 3.88 0.00 96 1013.9
20260903055003 77 73 3.0 3.0 0.00 3.88 0.00 96 1013.9
20260903054503 77 73 3.0 3.0 0.00 3.88 0.00 96 1013.8
20260903054024 77 73 3.0 3.0 0.00 3.89 0.00 96 1013.8
20260903053503 77 73 3.0 3.0 0.00 3.89 0.00 96 1013.8
20260903053003 77 73 3.0 3.0 0.00 3.90 0.00 96 1013.9
20260903052524 77 73 3.0 3.0 0.00 3.90 0.00 96 1013.9
20260903052003 77 73 3.0 3.0 0.00 3.90 0.00 96 1013.9
20260903051503 77 73 3.0 3.0 0.00 3.90 0.00 96 1013.9
20260903051003 77 73 3.0 3.0 0.00 3.91 0.00 96 1013.8
20260903050503 77 73 3.0 3.0 0.00 3.91 0.00 96 1013.8
20260903050003 77 73 3.0 3.0 0.00 3.91 0.00 96 1013.8
20260903045503 77 73 3.0 3.0 0.01 3.91 3.91 96 1013.8
20260903045024 77 73 3.0 3.0 0.01 3.92 3.91 96 1013.7
20260903044503 77 73 3.0 3.0 0.01 3.92 3.91 96 1013.7
20260903044003 77 73 3.0 3.0 0.01 3.92 3.91 96 1013.7
20260903043524 77 73 3.0 3.0 0.01 3.92 3.91 96 1013.8
20260903043003 77 73 3.0 3.0 0.01 3.92 3.91 96 1013.7
20260903042503 77 73 3.0 3.0 0.01 3.92 3.91 96 1013.6
20260903042003 77 73 3.0 3.0 0.02 3.92 3.91 96 1013.5
20260903041503 77 73 3.0 3.0 0.02 3.92 3.91 96 1013.6
20260903041003 77 73 3.0 3.0 0.02 3.92 3.91 96 1013.7
20260903040503 77 73 3.0 3.0 0.03 3.92 3.91 96 1013.7
20260903040003 77 73 3.0 3.0 0.04 3.92 3.91 96 1013.6
20260903035503 77 73 3.0 3.0 0.03 3.91 3.90 96 1013.7
20260903035003 77 73 3.0 3.0 0.04 3.91 3.90 96 1013.7
20260903034503 77 73 3.0 3.0 0.04 3.91 3.90 96 1013.7
20260903034024 77 73 3.0 3.0 0.05 3.91 3.90 96 1013.7
20260903033503 77 73 3.0 3.0 0.05 3.91 3.90 96 1013.6
20260903033003 77 73 3.0 3.0 0.05 3.91 3.90 96 1013.6
20260903032503 77 73 3.0 3.0 0.05 3.91 3.90 96 1013.4
20260903032003 77 73 3.0 3.0 0.05 3.90 3.89 96 1013.4
20260903031503 77 73 3.0 3.0 0.05 3.90 3.89 96 1013.4
20260903031003 77 73 3.0 3.0 0.06 3.90 3.89 96 1013.3
20260903030503 77 73 3.0 3.0 0.05 3.89 3.88 96 1013.3
20260903030003 76 73 3.0 3.0 0.05 3.88 3.87 96 1013.6
20260903025503 76 73 3.0 3.0 0.05 3.88 3.87 96 1013.5
20260903025003 76 73 3.0 3.0 0.05 3.87 3.86 96 1013.4
20260903024524 76 73 3.0 3.0 0.06 3.87 3.86 96 1013.4
20260903024024 76 73 3.0 3.0 0.05 3.86 3.85 96 1013.4
20260903023503 76 73 3.0 3.0 0.06 3.86 3.85 96 1013.5
20260903023024 76 73 3.0 3.0 0.06 3.86 3.85 96 1013.6